Погода в Снейр-Лейк

Канада     64°11′25″N   114°10′58″W
темп.,
°C
ветер,
м/с
пор.,
м/с
влажн.,
%
обл.,
%
осадки,
мм/ч
давл.,
гПа
погр.,
м
13 июня, вс
вс1300:00+11юв61188100 0.3 1008267
03:00+9юв51095100 0.0 1010243
06:00+9юв61088100 0.0 1011355
09:00+11юв7973100 0.0 1011515
12:00+14юв7860100 0.0 1011798
15:00+16юв8853100 0.0 10111146
18:00+16юв7854100 0.0 10111115
21:00+13юв7764100 0.0 1012668
14 июня, пн
пн1400:00+8юв61075100 0.0 1013314
03:00+6вюв588697 0.1 1014201
06:00+8вюв468364 0.4 1014199
09:00+13юв44665 0.2 1014430
12:00+16зюз2257100 0.4 1013970
15:00+20зсз554837 0.0 10131609
18:00+18сз664960 0.1 10141617
21:00+16сз46493 0.0 10151414
15 июня, вт
вт1500:00+10ссз59714 0.0 1017219
03:00+7ссз37860 0.0 1019164
06:00+7ссз47800 0.0 1019308
09:00+11ссз45620 0.0 1018788
12:00+15ссз45484 0.0 10171286
15:00+17ссз55395 0.0 10161602
18:00+18с56375 0.0 10151847
21:00+15св66470 0.0 1016961
16 июня, ср
ср1600:00+10св510672 0.0 1017273
03:00+7св49770 0.0 1018189
06:00+8св59730 0.0 1018423
09:00+12св78600 0.0 1018876
12:00+15св78505 0.0 10171280
15:00+17св67440 0.0 10171445
18:00+17св56390 0.0 10181548
21:00+17св35411 0.0 10181295
17 июня, чт
чт1700:00+11юв22564 0.0 101910
03:00+10зюз33584 0.0 102022
06:00+12зюз47605 0.0 1020157
09:00+17зсз564312 0.0 1019561
12:00+20з663179 0.0 10181679
15:00+22з7826100 0.0 10171890
18:00+22зсз7828100 0.0 10161729
21:00+20сз693954 0.0 1015442